Weather History for Cape Girardeau, MO

Change the Weather History Date:

Wednesday, January 9, 2013

  Actual Average Record
Temperature  
Mean Temperature 50 °F 33 °F  
Max Temperature 57 °F 42 °F 62 °F (1963)
Min Temperature 42 °F 24 °F 1 °F (1962)
Degree Days  
Heating Degree Days 16 32  
Month to date heating degree days 288  
Since 1 July heating degree days 2039  
Cooling Degree Days 0 0  
Month to date cooling degree days 0  
Year to date cooling degree days 0  
Moisture  
Dew Point 42 °F    
Average Humidity 79    
Maximum Humidity 93    
Minimum Humidity 57    
Precipitation  
Precipitation 0.00 in 0.11 in 0.99 in (1977)
Month to date precipitation 1.05  
Year to date precipitation 1.05  
Sea Level Pressure  
Sea Level Pressure 30.36 in    
Wind  
Wind Speed 3 mph (NE)    
Max Wind Speed 10 mph    
Max Gust Speed -    
Visibility 8 miles    
Events      
T = Trace of Precipitation, MM = Missing Value Source: NWS Daily Summary

Daily Weather History Graph

Daily Weather History Graph

Search for Another Location

Airport:

Trip Planner

Search our weather history database for the weather conditions in past years. The results will help you decide how hot, cold, wet, or windy it might be!

Date:

Astronomy

Jan. 09, 2013 Rise Set
Actual Time 7:12 AM CST 4:59 PM CST
Civil Twilight 6:43 AM CST 5:27 PM CST
Nautical Twilight 6:11 AM CST 6:00 PM CST
Astronomical Twilight 5:39 AM CST 6:31 PM CST
Moon 4:51 AM CST (1/9) 3:00 PM CST (1/9)
Length of Visible Light 10h 44m
Length of Day
9h 46m
Waning Crescent, 6% of the Moon is Illuminated
Jan 9
Waning Crescent
Jan 11
New
Jan 18
First Quarter
Jan 26
Full
Feb 3
Last Quarter

Hourly Weather History & Observations

Time (CST) Temp. Windchill Dew Point Humidity Pressure Visibility Wind Dir Wind Speed Gust Speed Precip Events Conditions
12:53 AM 42.1 °F - 39.9 °F 92% 30.24 in 7.0 mi Calm Calm - 0.00 in   Overcast
1:53 AM 42.1 °F 40.2 °F 39.0 °F 89% 30.26 in 7.0 mi SSE 3.5 mph - N/A   Overcast
2:53 AM 42.1 °F - 39.9 °F 92% 30.25 in 6.0 mi Calm Calm - 0.00 in   Mostly Cloudy
3:53 AM 42.1 °F - 39.9 °F 92% 30.27 in 4.0 mi Calm Calm - N/A   Overcast
4:53 AM 42.1 °F - 39.9 °F 92% 30.30 in 4.0 mi Calm Calm - N/A   Overcast
5:53 AM 43.0 °F 41.3 °F 41.0 °F 93% 30.31 in 5.0 mi East 3.5 mph - N/A   Overcast
6:17 AM 42.8 °F 40.1 °F 41.0 °F 93% 30.31 in 8.0 mi ENE 4.6 mph - N/A   Overcast
6:53 AM 44.1 °F - 41.0 °F 89% 30.34 in 8.0 mi Calm Calm - N/A   Overcast
7:06 AM 44.6 °F - 42.8 °F 93% 30.34 in 7.0 mi Calm Calm - N/A   Overcast
7:53 AM 43.0 °F - 41.0 °F 93% 30.36 in 5.0 mi Calm Calm - N/A   Overcast
8:53 AM 46.0 °F - 43.0 °F 89% 30.41 in 6.0 mi Calm Calm - N/A   Overcast
9:53 AM 48.9 °F - 44.1 °F 83% 30.41 in 9.0 mi Calm Calm - N/A   Mostly Cloudy
10:53 AM 54.0 °F - 45.0 °F 72% 30.39 in 10.0 mi Calm Calm - N/A   Clear
11:53 AM 55.4 °F - 46.4 °F 72% 30.37 in 10.0 mi NE 5.8 mph - N/A   Clear
12:53 PM 57.0 °F - 44.1 °F 62% 30.36 in 10.0 mi ENE 8.1 mph - N/A   Clear
1:53 PM 57.0 °F - 42.1 °F 57% 30.36 in 10.0 mi NNE 10.4 mph - N/A   Clear
2:53 PM 57.0 °F - 43.0 °F 59% 30.37 in 10.0 mi ENE 9.2 mph - N/A   Clear
3:53 PM 55.9 °F - 44.1 °F 64% 30.37 in 10.0 mi NNE 9.2 mph - N/A   Clear
4:53 PM 53.1 °F - 41.0 °F 64% 30.39 in 10.0 mi NE 9.2 mph - N/A   Clear
5:53 PM 50.0 °F - 41.0 °F 71% 30.41 in 10.0 mi NE 8.1 mph - N/A   Clear
6:53 PM 48.9 °F - 41.0 °F 74% 30.43 in 10.0 mi NE 8.1 mph - N/A   Clear
7:53 PM 48.0 °F - 41.0 °F 77% 30.43 in 10.0 mi NE 6.9 mph - N/A   Clear
8:53 PM 48.0 °F - 42.1 °F 80% 30.44 in 10.0 mi NE 8.1 mph - N/A   Clear
9:53 PM 48.0 °F - 41.0 °F 77% 30.43 in 10.0 mi NE 10.4 mph - N/A   Clear
10:53 PM 48.0 °F - 39.0 °F 71% 30.43 in 10.0 mi NE 10.4 mph - N/A   Clear
11:53 PM 48.0 °F - 37.9 °F 68% 30.43 in 10.0 mi NE 8.1 mph - N/A   Overcast